Regional Weather Roundup
Issued by NWS

Home | Current Version | Previous Version | Graphics & Text | Print | Product List | Glossary On
Versions: 1 2 3 4 5 6 7 8 9 10 11 12 13 14 15 16 17 18 19 20 21 22 23 24 25 26
000
ASUS45 KSLC 121910
RWRUT

UTAH REGIONAL WEATHER ROUNDUP
NATIONAL WEATHER SERVICE SALT LAKE CITY UT
1200 PM MST TUE DEC 12 2017

UTZ001>011-023>025-122000-

NORTHERN UTAH

CITY           SKY/WX    TMP DP  RH WIND       PRES   REMARKS
BRIGHAM CITY   CLOUDY    24  22  91 CALM      30.60F
DUGWAY         SUNNY     31  20  64 W5        30.57F WCI  26
HILL AFB       SUNNY     26  25  95 CALM      30.55F
LOGAN          HAZE      24  16  71 CALM      30.57F VSB 1/2
OGDEN          CLOUDY    26  22  84 CALM      30.56F FOG
SALT LAKE CITY FOG       24  23  96 CALM      30.59F VSB 1/2
TOOELE VALLEY  MOSUNNY   25  23  93 CALM      30.60F FOG
WENDOVER       SUNNY     26  21  81 VRB3      30.59F
HEBER CITY       N/A     36  16  44 CALM      30.49F
WEST JORDAN    CLOUDY    23  23 100 CALM      30.57F

$$

UTZ011>015-024>027-122000-

CENTRAL/NORTHEAST UTAH

CITY           SKY/WX    TMP DP  RH WIND       PRES   REMARKS
PROVO AIRPORT  SUNNY     30  23  75 SW3       30.56F
MOAB/CANYONLAN SUNNY     43   5  20 CALM      30.48F
DELTA          SUNNY     34  14  44 CALM      30.53F
PRICE          SUNNY     47   6  18 SE5       30.46F
RICHFIELD      SUNNY     39   1  20 CALM      30.50F
ROOSEVELT      SUNNY     34   9  35 SE3       30.55F
VERNAL         SUNNY     38  10  31 SE5       30.51F WCI  34

$$

UTZ013>016-019>022-027-122000-

SOUTHERN UTAH

CITY           SKY/WX    TMP DP  RH WIND       PRES   REMARKS
BRYCE CANYON   SUNNY     52   6  15 N5        30.51F
CEDAR CITY     SUNNY     43   8  23 CALM      30.47F
MILFORD        SUNNY     38  16  40 VRB5      30.51F WCI  34
ST GEORGE      CLEAR     45   4  18 SW5       30.43F
HANKSVILLE     SUNNY     36   3  25 CALM      30.53F
KANAB          SUNNY     63  -2   7 NE12      30.45F
BLANDING         N/A     45   5  19 CALM      30.54F

$$

REGIONAL REPORTS     COLORADO/ARIZONA

CITY           SKY/WX    TMP DP  RH WIND       PRES   REMARKS
CRAIG, CO      CLOUDY    34  18  52 CALM      30.49F
GRAND JUNCTION SUNNY     46  12  25 S6        30.48F
RIFLE, CO      SUNNY     45  13  27 E3        30.49F
MONTROSE, CO   SUNNY     46   7  20 NW6       30.50F
CORTEZ, CO     SUNNY     46   4  17 SW8       30.46F
COLORADO CITY    N/A     55   3  12 CALM      30.43F
PAGE, AZ       SUNNY     42  13  30 N3        30.48F
GRAND CANYON   SUNNY     55   3  12 NE17      30.46F
KINGMAN, AZ    SUNNY     61   2   9 N12       30.33F
FLAGSTAFF, AZ  SUNNY     51   1  13 E9        30.44F

$$

REGIONAL REPORTS    NEVADA/IDAHO/WYOMING

CITY           SKY/WX    TMP DP  RH WIND       PRES   REMARKS
LAS VEGAS, NV  MOSUNNY   61  -2   8 CALM      30.34F
ELY, NY        SUNNY     50  -1  12 NE3       30.50F
ELKO, NV       MOSUNNY   28  16  60 CALM      30.54F
POCATELLO, ID  CLOUDY    25  21  85 CALM      30.55F
BURLEY, ID     FOG       23  20  88 CALM      30.54F VSB 1
FORT BRIDGER,    N/A     56   6  13 W14       30.51F
EVANSTON, WY     N/A    N/A N/A N/A MISG      30.50F
ROCK SPRINGS,  SUNNY     44   7  21 W10       30.45F

$$




USA.gov is the U.S. government's official web portal to all federal, state and local government web resources and services.